Regional Weather Roundup
Issued by NWS

Home | Current Version | Previous Version | Text Only | Print | Product List | Glossary On
Versions: 1 2 3 4 5 6 7 8 9 10 11 12 13 14 15 16 17 18 19 20 21 22 23 24 25 26 27 28 29 30 31 32 33 34 35 36 37 38 39 40 41 42 43 44 45 46 47 48 49 50
000
ASUS45 KTFX 290819
RWRMT
MONTANA HOURLY WEATHER ROUNDUP
NATIONAL WEATHER SERVICE GREAT FALLS MT
219 AM MDT SUN MAR 29 2015

NOTE: "FAIR" INDICATES FEW OR NO CLOUDS BELOW 12000 FEET WITH NO
SIGNIFICANT WEATHER AND/OR OBSTRUCTIONS TO VISIBILITY.

* THESE STATIONS ARE NOT UNDER NWS QUALITY CONTROL. THEY DO NOT
   REPORT WEATHER SUCH AS PRECIPITATION OR FOG.

MTZ001>007-043-290900-
WEST OF THE DIVIDE
CITY           SKY/WX    TMP DP  RH WIND       PRES   REMARKS
KALISPELL      MOCLDY    39  36  89 S9        30.26R WCI  33
MISSOULA       PTCLDY    37  30  76 CALM      30.32R
BUTTE          CLEAR     36  21  54 CALM      30.30F
MULLAN PASS    PTCLDY    30  28  92 VRB6      30.28S WCI  24
* ESSEX        N/A       37  36  96 S1         N/A
* EUREKA APT   PTCLDY    43  34  71 E7         N/A
* HAMILTON APT PTCLDY    37  28  70 S9        30.33R WCI  30
* LIBBY APT    PTCLDY    37  34  89 CALM      30.27S
* LINCOLN      N/A       40  28  62 S7G17      N/A   WCI  35
* LOOKOUT PASS N/A       34  32  92 NE3        N/A
* POLSON       N/A       37  33  85 SE1        N/A
* SEELEY LAKE  N/A       34  31  89 N/A        N/A
* THOMP F APT  PTCLDY    35  13  40 N3G21      N/A
$$

MTZ008-052>055-290900-
SOUTHWEST MONTANA
CITY           SKY/WX    TMP DP  RH WIND       PRES   REMARKS
BOZEMAN        CLEAR     34  21  59 SW3       30.31R
DILLON         CLEAR     32  18  56 SW5       30.30R WCI  27
* W YELLOWSTON CLEAR     26  18  72 N/A        N/A
* BOULDER HILL N/A       36  18  48 S3         N/A
* HOMESTAKE PS N/A       30  20  66 W3G11      N/A
* MONIDA PASS  N/A       28  16  61 SW8        N/A   WCI  20
* RAYNOLDS PAS N/A       25   0  33 E4         N/A
* WHITEHALL    N/A       38  21  50 NW8        N/A   WCI  32
* WISE RIVER   N/A       34  20  57 SW8G19     N/A   WCI  27
$$

MTZ009>010-012-014-046-048-049-054-290900-
EAST SLOPES AND CENTRAL MONTANA
CITY           SKY/WX    TMP DP  RH WIND       PRES   REMARKS
CUT BANK       PTCLDY    41  30  65 W20       30.11R
GREAT FALLS    PTCLDY    39  27  62 SW15      30.16R WCI  31
HELENA         FAIR      43  27  53 W6        30.26R
MALMSTROM AFB  CLEAR     43  28  56 SW17G25   30.17R
* DEARBORN     N/A       47  28  48 SE11G18    N/A
* EAST GLACIER N/A       40  27  60 W12G20     N/A   WCI  33
* MONARCH      N/A       36  23  59 SW11G16    N/A   WCI  28
* PENDROY      N/A       39  26  60 W14        N/A   WCI  31
* ROGERS PASS  N/A       36  27  70 E9G19      N/A   WCI  29
* SAINT MARY   N/A       41  29  62 SW9G26     N/A
* WHITE SULPH  N/A       37  23  57 NW6G11     N/A   WCI  32
$$

MTZ011-013-016-021-035-040-045-047-050-051-290900-
NORTH CENTRAL MONTANA
CITY           SKY/WX    TMP DP  RH WIND       PRES   REMARKS
HAVRE          PTCLDY    43  37  79 W9        30.12R
LEWISTOWN      PTCLDY    39  32  76 NW8       30.15S WCI  33
* N BAR RANCH  CLEAR     39  28  65 W8        30.15R WCI  33
* CHINOOK      PTCLDY    43  39  86 W9        30.10R
* FORT BENTON  CLEAR     39  28  65 SW5       30.17R WCI  35
* CHESTER      N/A       40  33  76 NW6        N/A   WCI  36
* DENTON       N/A       38  31  76 SW9G14     N/A   WCI  32
* GEYSER       N/A       37  26  64 NW7        N/A   WCI  32
* JUDITH GAP   N/A       35  28  76 SW7        N/A   WCI  29
* LOMA         N/A       41  32  70 SW4G11     N/A
$$

MTZ017>020-022>027-061-062-290900-
NORTHEAST MONTANA
CITY           SKY/WX    TMP DP  RH WIND       PRES   REMARKS
GLASGOW        PTCLDY    39  36  89 NW12      30.04R WCI  32
GLENDIVE       PTCLDY    43  37  79 NW26G37   29.97R
JORDAN         CLEAR     43  37  79 NW20G26   30.06R
SIDNEY         PTCLDY    41  34  76 NW21G28   29.94R
WOLF POINT     CLEAR     41  36  82 NW14      30.01R
* BEAVER HILL  N/A       40  38  93 NW36G47    N/A   WCI  27
* CIRCLE       N/A       42  37  83 NW13G20    N/A
* LINDSAY DVD  N/A       40  37  89 NW41G53    N/A   WCI  27
* NAVAJO       N/A       36  34  92 NW20G28    N/A   WCI  25
* POPLAR APT   CLEAR     39  36  89 W15       30.00R WCI  31
* SACO         N/A       41  37  86 W12G18     N/A
$$

MTZ028>042-056>058-290900-
SOUTHCENTRAL AND SOUTHEAST MONTANA
CITY           SKY/WX    TMP DP  RH WIND       PRES   REMARKS
BAKER          CLOUDY    41 N/A N/A NW37G49   29.92R
BILLINGS       PTCLDY    46  25  44 W20       30.17R
LIVINGSTON     CLEAR     43  21  42 W21G30    30.24R
MILES CITY     MOCLDY    43 N/A N/A NW20      30.05R
* BIG TIMBER A PTCLDY    43  21  42 SW22G29   30.21R
* FORSYTH APT  PTCLDY    45  39  80 W16G25    30.11R
* ALZADA       N/A       40  36  86 W24G32     N/A   WCI  30
* HYSHAM       N/A       44  34  68 W14G19     N/A
* LAME DEER    N/A       40  35  82 W18G26     N/A   WCI  31
* REED POINT   N/A       47  22  37 W13G18     N/A
* ROSCOE HILL  N/A       41   8  25 W4G9       N/A
$$

REGIONAL REPORTS...DAKOTAS
CITY           SKY/WX    TMP DP  RH WIND       PRES   REMARKS
WILLISTON      CLOUDY    39  36  89 N24G36    29.85R WCI  28
DICKINSON      LGT RAIN  39  37  93 NW29G40   29.74R WCI  27
BEACH          LGT RAIN  39  39 100 NW35G47   29.90R WCI  26
CROSBY         CLEAR     36  36 100 NW23G30   29.84R WCI  24
TIOGA          CLOUDY    37  37 100 N28G46    29.81R WCI  25
WATFORD CITY   CLOUDY    39  37  93 NW30G40   29.81R WCI  27
BISMARCK       LGT RAIN  46  41  83 W15       29.61S
GRAND FORKS    CLOUDY    43  37  79 SW10G20   29.43F
FARGO          RAIN      39  36  89 S17       29.52F WCI  30
BUFFALO SD     MOCLDY    37  36  96 NW47G60   29.82R WCI  22
RAPID CITY     CLEAR     52  19  27 NW28G46   29.88R
$$

REGIONAL REPORTS...WYOMING/IDAHO/WASHINGTON
CITY           SKY/WX    TMP DP  RH WIND       PRES   REMARKS
GILLETTE       PTCLDY    43  32  65 NW25G37   30.10R
SHERIDAN       CLOUDY    46  28  50 NW14      30.18R
CODY           CLEAR     43  14  31 NW3       30.21R
YELLOWSTONE LA CLEAR     25  14  63 NW5       30.31S WCI  19
SALMON         CLEAR     34  23  64 SE6       30.34S WCI  29
MULLAN PASS    PTCLDY    30  28  92 VRB6      30.28S WCI  24
SAND POINT     PTCLDY    43  34  71 SW5       30.29S
SPOKANE        CLOUDY    45  36  71 S7        30.28S
$$

REGIONAL REPORTS...ALBERTA
CITY           SKY/WX    TMP DP  RH WIND       PRES   REMARKS
CALGARY        FAIR      37  30  76 S6        30.01S WCI  32
LETHBRIDGE     MOCLDY    43  30  60 W18G25    30.07S
MEDICINE HAT   CLOUDY    41  37  86 S6        30.06S
EDMONTON       FAIR      30  27  89 S9        29.95S WCI  22
WATERTON GATE  N/A       45  25  45 SW24G36    N/A
CARDSTON       N/A       43  27  53 W14G21     N/A
MILK RIVER     N/A       30  28  92 NW6        N/A   WCI  24
$$

REGIONAL REPORTS...SASKATCHEWAN
CITY           SKY/WX    TMP DP  RH WIND       PRES   REMARKS
SWIFT CURRENT  FOG       36  36 100 W12       30.00R VSB 1    WCI  28
REGINA         N/A       34  32  92 NW14      29.89R WCI  24
VAL MARIE      N/A       41  37  86 W12        N/A
ASSINIBOIA     N/A       36  34  92 W16G22     N/A   WCI  26
CORONACH       N/A       36  34  92 W17        N/A   WCI  26

$$



USA.gov is the U.S. government's official web portal to all federal, state and local government web resources and services.